Погода в Малягурте

Россия / Удмуртская Республика     57°32′10″N   52°32′44″E
темп.,
°C
ветер,
м/с
пор.,
м/с
влажн.,
%
обл.,
%
осадки,
мм/ч
давл.,
гПа
погр.,
м
27 января, чт
чт2701:00−11юз2496100 1.1 1015360
04:00−13юз2596100 1.5 1016274
07:00−14юз379697 0.2 1017264
10:00−15юз3895100 0.3 1018300
13:00−13юз4689100 0.1 1019450
16:00−13ююз3794100 0.2 1020391
19:00−14ююз389698 0.1 1021273
22:00−17ююз389894 0.1 1021227
28 января, пт
пт2801:00−20ю2410072 0.0 102272
04:00−21ю2510097 0.1 102276
07:00−18ююв2699100 0.1 1022133
10:00−14ю289594 0.2 1022203
13:00−10ююз3792100 0.1 1021328
16:00−9ю379594 0.2 1021356
19:00−12ююв2697100 0.1 1021105
22:00−10ююв2796100 0.1 1020191
29 января, сб
сб2901:00−9юв2895100 0.3 1020245
04:00−9юв3993100 0.3 1019263
07:00−11вюв399375 0.0 1017223
10:00−10вюв289195 0.0 1016246
13:00−7ююв369194 0.0 1014294
16:00−8юв2694100 0.0 1013179
19:00−10ююв399399 0.0 1013285
22:00−11ююв3894100 0.0 1011258
30 января, вс
вс3001:00−11ююв3895100 0.1 1010283
04:00−10ююв3895100 0.3 1008277
07:00−10ююв3995100 0.3 1007296
10:00−10ююв389489 0.4 1006318
13:00−7ююв3690100 0.1 1005353
16:00−7юв3893100 0.1 1003332
19:00−7юв399483 0.2 1003309
22:00−6юв399685 0.4 1002237
31 января, пн
пн3101:00−5ю399691 0.3 1003429
04:00−6ю4994100 0.6 1004476
07:00−8ююв41093100 0.1 1005423
10:00−7ююв41192100 0.1 1006489
13:00−5ююв51292100 0.2 1005606
16:00−3ююв51295100 0.9 1004731
19:00−2ююв51495100 0.8 1004821
22:00−1ю51396100 1.2 1003957